Tracking 20037 objects as of 20-Nov-2019
Live streaming from Space Station
objects crossing your sky now

COSMOS 1800

Track COSMOS 1800 now!
10-day predictions
COSMOS 1800 is classified as:


NORAD ID: 17144
Int'l Code: 1986-092G
Perigee: 1,405.8 km
Apogee: 1,479.1 km
Inclination: 74.0 °
Period: 114.6 minutes
Semi major axis: 7813 km
RCS: 0.7179 m2 (medium)
Launch date: November 21, 1986
Source: Commonwealth of Independent States (former USSR) (CIS)
Launch site: PLESETSK MISSILE AND SPACE COMPLEX (PKMTR)
aabbcc
Your satellite tracking list
Your tracking list is empty




NASA's NSSDC Master Catalog

Two Line Element Set (TLE):
1 17144U 86092G   19323.83790942 -.00000014 +00000-0 +12339-4 0  9990
2 17144 074.0164 058.8550 0046915 141.9519 331.2580 12.57000221514043
Source of the keplerian elements: AFSPC